Flag for United Arab Emirates Weather past 2 weeks in Ras al-Khaimah, Ras al-Khaimah, United Arab Emirates

Now
90 °F

Clear.


Feels Like: 105 °F
Forecast: 89 / 106 °F
Wind: 8 mph from Southwest

Location: Ras Al Khaimah International Airport

Current Time: Aug 22, 2014 at 2:55:51 AM

Latest Report: Aug 22, 2014 at 2:00 AM


Visibility: 4 mi

Pressure: 29.47 "Hg

Humidity: 71%

Dew point: 79 °F

Location of Ras al-KhaimahLocation

Historic Weather in Ras al-Khaimah — Graph

°F

Ras al-Khaimah temperature yesterday

Maximum temperature yesterday: 108 °F (at 1:00 PM)
Minimum temperature yesterday: 84 °F (at 4:00 AM)
Average temperature yesterday: 94 °F

Past Weeks' High & Low Weather Summary

 TemperatureHumidityPressure
High115 °F (Aug 16, 12:00 PM)79% (Aug 8, 1:00 AM)29.77 "Hg (Aug 8, 1:00 AM)
Low82 °F (Aug 15, 6:00 AM)10% (Aug 16, 12:00 PM)29.36 "Hg (Aug 8, 4:00 PM)
Average96 °F46%29.52 "Hg
* Reported Aug 7 1:00 AM — Aug 22 1:00 AM, Ras al-Khaimah, Weather by CustomWeather, © 2014

Note: Actual official high and low records may vary slightly from our data, if they occured in-between our weather recording intervals... More about our weather records

Advertising

Ras al-Khaimah weather history for previous 24 hours

 ConditionsComfort  
Time TempWeatherWind HumidityBarometerVisibility
1:00 AM
Aug 22
90 °FClear.8 mph71%29.47 "Hg4 mi
12:00 AM91 °FClear.13 mph71%29.50 "Hg4 mi
11:00 PM
Aug 21
91 °FClear.6 mph75%29.53 "Hg4 mi
10:00 PM90 °FClear.6 mph79%29.56 "Hg4 mi
9:00 PM91 °FClear.No wind75%29.56 "Hg4 mi
8:00 PM91 °FClear.8 mph75%29.59 "Hg4 mi
7:00 PM91 °FClear.16 mph75%29.59 "Hg4 mi
6:00 PM97 °FClear.8 mph60%29.56 "Hg5 mi
5:00 PM99 °FClear.9 mph53%29.56 "Hg5 mi
4:00 PM100 °FClear.10 mph47%29.56 "Hg5 mi
3:00 PM100 °FClear.13 mph47%29.56 "Hg5 mi
2:00 PM104 °FSunny.13 mph33%29.56 "Hg10 mi
1:00 PM108 °FSunny.8 mph26%29.59 "Hg10 mi
12:00 PM106 °FSunny.6 mph23%29.62 "Hg10 mi
11:00 AM104 °FSunny.5 mph23%29.62 "Hg10 mi
10:00 AM102 °FSunny.3 mph26%29.65 "Hg10 mi
9:00 AM99 °FPassing clouds.5 mph31%29.65 "HgN/A
8:00 AM93 °FClear.5 mph41%29.62 "Hg4 mi
7:00 AM86 °FClear.5 mph52%29.62 "Hg5 mi
6:00 AM84 °FClear.2 mph37%29.59 "Hg5 mi
5:00 AM84 °FClear.2 mph58%29.59 "Hg5 mi
4:00 AM84 °FClear.2 mph62%29.59 "Hg5 mi
3:00 AM86 °FClear.No wind62%29.59 "Hg5 mi
2:00 AM86 °FClear.3 mph62%29.59 "Hg5 mi
Weather by CustomWeather, © 2014

See weather overviewHow to use our weather pages